Retour au catalogue

SL-14 R/B

ActifLEO
NORAD 15822·ROCKET BODY·🇷🇺 Russia

Lancé Jun 14, 1985 depuis Plesetsk Cosmodrome

Loading…

Prochains Passages (prochaines 24 heures)

TLE

FraisSource: Space-Track

Époque: Sep 14, 2026, 20:09 UTC

1 15822U 85047B   26257.84003095 -.00000024  00000-0 -47196-4 0  9992
2 15822  73.6246  45.4072 0025685 282.3694 245.3747 12.41278148869395

Suivez SL-14 R/B en temps réel avec AllMySat

Download on the App Store